| time (UTC) | temp F | wind direction | speed MPH | gust MPH | rain 1hr in | rain 24hr in | rain mn in | humidity % | barometer mb |
| 20260504184157 | 79 | 65 | 5.0 | 7.0 | 0.00 | 0.00 | 0.00 | 63 | 1012.7 |
| 20260504183654 | 78 | 127 | 4.0 | 5.0 | 0.00 | 0.00 | 0.00 | 64 | 1012.6 |
| 20260504183151 | 78 | 89 | 3.0 | 3.0 | 0.00 | 0.00 | 0.00 | 63 | 1012.7 |
| 20260504182649 | 79 | 105 | 3.0 | 3.0 | 0.00 | 0.00 | 0.00 | 62 | 1013.0 |
| 20260504182146 | 79 | 77 | 3.0 | 3.0 | 0.00 | 0.00 | 0.00 | 63 | 1012.9 |
| 20260504181643 | 78 | 78 | 4.0 | 5.0 | 0.00 | 0.00 | 0.00 | 63 | 1013.2 |
| 20260504181141 | 78 | 110 | 4.0 | 6.0 | 0.00 | 0.00 | 0.00 | 64 | 1013.0 |
| 20260504180640 | 78 | 309 | 4.0 | 6.0 | 0.00 | 0.00 | 0.00 | 65 | 1013.1 |
| 20260504180138 | 77 | 19 | 2.0 | 2.0 | 0.00 | 0.00 | 0.00 | 66 | 1013.1 |
| 20260504175635 | 78 | 15 | 3.0 | 5.0 | 0.00 | 0.00 | 0.00 | 64 | 1012.9 |
| 20260504175132 | 77 | 78 | 5.0 | 6.0 | 0.00 | 0.00 | 0.00 | 65 | 1013.1 |
| 20260504174630 | 77 | 107 | 3.0 | 5.0 | 0.00 | 0.00 | 0.00 | 64 | 1013.3 |
| 20260504174126 | 78 | 17 | 2.0 | 3.0 | 0.00 | 0.00 | 0.00 | 65 | 1013.2 |
| 20260504173624 | 78 | 192 | 1.0 | 2.0 | 0.00 | 0.00 | 0.00 | 65 | 1013.5 |
| 20260504173121 | 76 | 55 | 4.0 | 5.0 | 0.00 | 0.00 | 0.00 | 67 | 1013.5 |
| 20260504172617 | 75 | 110 | 4.0 | 5.0 | 0.00 | 0.00 | 0.00 | 68 | 1013.6 |
| 20260504172114 | 76 | 100 | 3.0 | 3.0 | 0.00 | 0.00 | 0.00 | 69 | 1013.4 |
| 20260504171610 | 75 | 89 | 3.0 | 3.0 | 0.00 | 0.00 | 0.00 | 68 | 1013.5 |
| 20260504171108 | 73 | 63 | 3.0 | 6.0 | 0.00 | 0.00 | 0.00 | 72 | 1013.7 |
| 20260504170603 | 73 | 347 | 3.0 | 5.0 | 0.00 | 0.00 | 0.00 | 72 | 1013.8 |
| 20260504150947 | 68 | 93 | 3.0 | 3.0 | 0.00 | 0.00 | 0.00 | 82 | 1014.7 |
| 20260504150444 | 68 | 133 | 3.0 | 3.0 | 0.00 | 0.00 | 0.00 | 82 | 1014.9 |
| 20260504140910 | 65 | 53 | 2.0 | 2.0 | 0.00 | 0.00 | 0.00 | 84 | 1014.7 |
| 20260504140406 | 65 | 134 | 3.0 | 3.0 | 0.00 | 0.00 | 0.00 | 84 | 1014.6 |
| 20260504130331 | 62 | 231 | 1.0 | 1.0 | 0.00 | 0.00 | 0.00 | 87 | 1014.8 |
| 20260504120254 | 60 | 246 | 1.0 | 1.0 | 0.00 | 0.00 | 0.00 | 90 | 1014.6 |
| 20260504110218 | 59 | 246 | 0.0 | 0.0 | 0.00 | 0.00 | 0.00 | 89 | 1014.2 |
| 20260504100142 | 59 | 247 | 0.0 | 1.0 | 0.00 | 0.00 | 0.00 | 88 | 1014.5 |
| 20260504090105 | 60 | 245 | 1.0 | 1.0 | 0.00 | 0.00 | 0.00 | 86 | 1014.8 |
| 20260504081535 | 61 | 243 | 0.0 | 1.0 | 0.00 | 0.00 | 0.00 | 84 | 1015.3 |
| 20260504081031 | 61 | 254 | 1.0 | 1.0 | 0.00 | 0.00 | 0.00 | 84 | 1015.2 |
| 20260504080527 | 61 | 242 | 0.0 | 1.0 | 0.00 | 0.00 | 0.00 | 83 | 1015.2 |
| 20260504050340 | 64 | 247 | 1.0 | 2.0 | 0.00 | 0.00 | 0.00 | 72 | 1017.3 |
| 20260504045838 | 64 | 244 | 1.0 | 2.0 | 0.00 | 0.00 | 0.00 | 72 | 1017.3 |
| 20260504045332 | 64 | 264 | 3.0 | 5.0 | 0.00 | 0.00 | 0.00 | 72 | 1017.1 |
| 20260504044829 | 64 | 242 | 2.0 | 2.0 | 0.00 | 0.00 | 0.00 | 71 | 1017.2 |
| 20260504044327 | 64 | 258 | 3.0 | 5.0 | 0.00 | 0.00 | 0.00 | 71 | 1017.3 |
| 20260504043824 | 65 | 310 | 1.0 | 2.0 | 0.00 | 0.00 | 0.00 | 70 | 1017.3 |
| 20260504043321 | 65 | 255 | 2.0 | 2.0 | 0.00 | 0.00 | 0.00 | 70 | 1017.4 |
| 20260504042818 | 65 | 239 | 1.0 | 1.0 | 0.00 | 0.00 | 0.00 | 70 | 1017.0 |
| 20260504042314 | 65 | 271 | 2.0 | 2.0 | 0.00 | 0.00 | 0.00 | 69 | 1017.3 |
| 20260504041811 | 65 | 226 | 1.0 | 2.0 | 0.00 | 0.00 | 0.00 | 69 | 1017.5 |
| 20260504041307 | 65 | 247 | 1.0 | 1.0 | 0.00 | 0.00 | 0.00 | 69 | 1017.2 |
| 20260504040803 | 65 | 242 | 1.0 | 2.0 | 0.00 | 0.00 | 0.00 | 68 | 1017.1 |
| 20260504040301 | 65 | 281 | 3.0 | 5.0 | 0.00 | 0.00 | 0.00 | 69 | 1017.5 |
| 20260504035757 | 65 | 249 | 1.0 | 1.0 | 0.00 | 0.00 | 0.00 | 69 | 1017.6 |
| 20260504035254 | 64 | 244 | 1.0 | 2.0 | 0.00 | 0.00 | 0.00 | 69 | 1017.4 |
| 20260504034751 | 64 | 251 | 1.0 | 1.0 | 0.00 | 0.00 | 0.00 | 68 | 1017.3 |
| 20260504034249 | 64 | 254 | 0.0 | 1.0 | 0.00 | 0.00 | 0.00 | 68 | 1017.5 |
| 20260504033746 | 64 | 256 | 0.0 | 1.0 | 0.00 | 0.00 | 0.00 | 68 | 1017.2 |
| 20260504033243 | 64 | 259 | 1.0 | 2.0 | 0.00 | 0.00 | 0.00 | 68 | 1017.2 |
| 20260504032740 | 63 | 310 | 2.0 | 6.0 | 0.00 | 0.00 | 0.00 | 68 | 1017.5 |
| 20260504032237 | 63 | 252 | 1.0 | 1.0 | 0.00 | 0.00 | 0.00 | 68 | 1017.2 |
| 20260504031734 | 61 | 249 | 0.0 | 1.0 | 0.00 | 0.00 | 0.00 | 71 | 1017.3 |
| 20260504031232 | 60 | 249 | 0.0 | 0.0 | 0.00 | 0.00 | 0.00 | 76 | 1017.0 |
| 20260504030727 | 60 | 248 | 0.0 | 0.0 | 0.00 | 0.00 | 0.00 | 76 | 1017.1 |
| 20260504030225 | 61 | 248 | 0.0 | 0.0 | 0.00 | 0.00 | 0.00 | 75 | 1017.1 |
| 20260504025721 | 61 | 248 | 0.0 | 0.0 | 0.00 | 0.00 | 0.00 | 74 | 1017.2 |
| 20260504025218 | 61 | 248 | 0.0 | 0.0 | 0.00 | 0.00 | 0.00 | 71 | 1017.1 |
| 20260504024715 | 61 | 248 | 0.0 | 0.0 | 0.00 | 0.00 | 0.00 | 72 | 1017.1 |
| 20260504024211 | 61 | 248 | 0.0 | 0.0 | 0.00 | 0.00 | 0.00 | 72 | 1017.2 |
| 20260504023708 | 62 | 248 | 0.0 | 0.0 | 0.00 | 0.00 | 0.00 | 72 | 1017.2 |
| 20260504023204 | 62 | 248 | 0.0 | 0.0 | 0.00 | 0.00 | 0.00 | 70 | 1017.2 |
| 20260504022701 | 62 | 248 | 0.0 | 0.0 | 0.00 | 0.00 | 0.00 | 69 | 1017.2 |
| 20260504022156 | 62 | 248 | 0.0 | 0.0 | 0.00 | 0.00 | 0.00 | 68 | 1017.2 |
| 20260504021655 | 63 | 248 | 0.0 | 0.0 | 0.00 | 0.00 | 0.00 | 67 | 1017.2 |
| 20260504021151 | 63 | 248 | 0.0 | 0.0 | 0.00 | 0.00 | 0.00 | 68 | 1017.1 |
| 20260504020648 | 63 | 248 | 0.0 | 0.0 | 0.00 | 0.00 | 0.00 | 66 | 1017.1 |
| 20260504020144 | 64 | 248 | 0.0 | 0.0 | 0.00 | 0.00 | 0.00 | 64 | 1017.1 |
| 20260504015641 | 65 | 248 | 0.0 | 0.0 | 0.00 | 0.00 | 0.00 | 62 | 1017.2 |
| 20260504015137 | 65 | 248 | 0.0 | 0.0 | 0.00 | 0.00 | 0.00 | 62 | 1017.3 |
| 20260504014633 | 66 | 248 | 0.0 | 0.0 | 0.00 | 0.00 | 0.00 | 60 | 1016.9 |
| 20260504014130 | 66 | 248 | 0.0 | 0.0 | 0.00 | 0.00 | 0.00 | 59 | 1016.9 |
| 20260504013628 | 67 | 248 | 0.0 | 0.0 | 0.00 | 0.00 | 0.00 | 57 | 1017.1 |
| 20260504013125 | 67 | 248 | 0.0 | 1.0 | 0.00 | 0.00 | 0.00 | 56 | 1016.6 |
| 20260504012622 | 67 | 248 | 0.0 | 0.0 | 0.00 | 0.00 | 0.00 | 56 | 1016.6 |
| 20260504012120 | 67 | 248 | 0.0 | 0.0 | 0.00 | 0.00 | 0.00 | 55 | 1016.9 |
| 20260504011616 | 68 | 248 | 0.0 | 0.0 | 0.00 | 0.00 | 0.00 | 55 | 1017.0 |
| 20260504011113 | 68 | 248 | 0.0 | 0.0 | 0.00 | 0.00 | 0.00 | 54 | 1016.7 |
| 20260504010608 | 69 | 248 | 0.0 | 0.0 | 0.00 | 0.00 | 0.00 | 53 | 1016.3 |
| 20260504010105 | 70 | 240 | 0.0 | 0.0 | 0.00 | 0.00 | 0.00 | 51 | 1016.3 |
| 20260504005601 | 70 | 253 | 1.0 | 1.0 | 0.00 | 0.00 | 0.00 | 50 | 1016.4 |
| 20260504005059 | 71 | 244 | 0.0 | 1.0 | 0.00 | 0.00 | 0.00 | 49 | 1016.3 |
| 20260504004556 | 71 | 244 | 0.0 | 1.0 | 0.00 | 0.00 | 0.00 | 49 | 1016.4 |
| 20260504004053 | 71 | 244 | 0.0 | 1.0 | 0.00 | 0.00 | 0.00 | 49 | 1016.4 |
| 20260504003549 | 72 | 242 | 1.0 | 1.0 | 0.00 | 0.00 | 0.00 | 49 | 1016.5 |
| 20260504003046 | 72 | 270 | 1.0 | 2.0 | 0.00 | 0.00 | 0.00 | 47 | 1016.7 |
| 20260504002543 | 73 | 227 | 2.0 | 3.0 | 0.00 | 0.00 | 0.00 | 47 | 1016.5 |
| 20260504002041 | 73 | 342 | 2.0 | 2.0 | 0.00 | 0.00 | 0.00 | 46 | 1016.9 |
| 20260504001538 | 73 | 244 | 1.0 | 1.0 | 0.00 | 0.00 | 0.00 | 49 | 1016.9 |
| 20260504001034 | 74 | 222 | 0.0 | 1.0 | 0.00 | 0.00 | 0.00 | 47 | 1016.9 |
| 20260504000532 | 74 | 233 | 0.0 | 1.0 | 0.00 | 0.00 | 0.00 | 46 | 1016.7 |
| 20260504000029 | 74 | 219 | 0.0 | 1.0 | 0.00 | 0.00 | 0.00 | 46 | 1016.9 |
| 20260503235527 | 75 | 230 | 1.0 | 1.0 | 0.00 | 0.00 | 0.00 | 45 | 1017.0 |
| 20260503235024 | 75 | 232 | 2.0 | 2.0 | 0.00 | 0.00 | 0.00 | 44 | 1017.1 |
| 20260503234521 | 76 | 227 | 2.0 | 2.0 | 0.00 | 0.00 | 0.00 | 43 | 1016.9 |
| 20260503234020 | 76 | 200 | 2.0 | 2.0 | 0.00 | 0.00 | 0.00 | 44 | 1017.3 |
| 20260503233515 | 75 | 230 | 1.0 | 1.0 | 0.00 | 0.00 | 0.00 | 45 | 1017.2 |
| 20260503233011 | 75 | 197 | 1.0 | 2.0 | 0.00 | 0.00 | 0.00 | 44 | 1017.2 |
| 20260503232509 | 75 | 236 | 1.0 | 1.0 | 0.00 | 0.00 | 0.00 | 44 | 1017.3 |
| 20260503232006 | 75 | 238 | 1.0 | 2.0 | 0.00 | 0.00 | 0.00 | 43 | 1017.2 |
| 20260503231504 | 75 | 230 | 2.0 | 2.0 | 0.00 | 0.00 | 0.00 | 43 | 1016.9 |
| 20260503231000 | 76 | 236 | 2.0 | 2.0 | 0.00 | 0.00 | 0.00 | 42 | 1017.0 |
| 20260503230457 | 76 | 228 | 2.0 | 2.0 | 0.00 | 0.00 | 0.00 | 42 | 1017.1 |
| 20260503225954 | 76 | 231 | 2.0 | 2.0 | 0.00 | 0.00 | 0.00 | 42 | 1017.2 |
| 20260503225451 | 76 | 240 | 2.0 | 2.0 | 0.00 | 0.00 | 0.00 | 41 | 1017.2 |
| 20260503224946 | 77 | 224 | 3.0 | 5.0 | 0.00 | 0.00 | 0.00 | 41 | 1017.3 |
| 20260503224444 | 77 | 36 | 2.0 | 2.0 | 0.00 | 0.00 | 0.00 | 40 | 1017.2 |
| 20260503223942 | 76 | 238 | 0.0 | 1.0 | 0.00 | 0.00 | 0.00 | 41 | 1017.1 |
| 20260503223439 | 77 | 228 | 2.0 | 2.0 | 0.00 | 0.00 | 0.00 | 41 | 1017.1 |
| 20260503222934 | 78 | 286 | 1.0 | 2.0 | 0.00 | 0.00 | 0.00 | 39 | 1017.3 |
| 20260503222433 | 79 | 231 | 1.0 | 2.0 | 0.00 | 0.00 | 0.00 | 39 | 1017.4 |
| 20260503221931 | 79 | 210 | 1.0 | 1.0 | 0.00 | 0.00 | 0.00 | 40 | 1017.5 |
| 20260503221429 | 77 | 91 | 4.0 | 6.0 | 0.00 | 0.00 | 0.00 | 37 | 1017.5 |
| 20260503220926 | 77 | 230 | 2.0 | 2.0 | 0.00 | 0.00 | 0.00 | 42 | 1017.7 |
| 20260503220422 | 78 | 247 | 1.0 | 2.0 | 0.00 | 0.00 | 0.00 | 40 | 1017.9 |
| 20260503215919 | 79 | 240 | 1.0 | 1.0 | 0.00 | 0.00 | 0.00 | 39 | 1017.6 |
| 20260503215416 | 77 | 216 | 1.0 | 1.0 | 0.00 | 0.00 | 0.00 | 39 | 1018.1 |
| 20260503214914 | 78 | 239 | 1.0 | 2.0 | 0.00 | 0.00 | 0.00 | 41 | 1018.0 |
| 20260503214411 | 79 | 247 | 1.0 | 2.0 | 0.00 | 0.00 | 0.00 | 39 | 1018.3 |
| 20260503213908 | 78 | 217 | 1.0 | 1.0 | 0.00 | 0.00 | 0.00 | 39 | 1018.3 |
| 20260503213406 | 79 | 264 | 1.0 | 2.0 | 0.00 | 0.00 | 0.00 | 39 | 1018.1 |
| 20260503212902 | 78 | 240 | 2.0 | 5.0 | 0.00 | 0.00 | 0.00 | 38 | 1018.2 |
| 20260503212400 | 79 | 208 | 3.0 | 3.0 | 0.00 | 0.00 | 0.00 | 38 | 1018.3 |
| 20260503211857 | 79 | 206 | 1.0 | 1.0 | 0.00 | 0.00 | 0.00 | 40 | 1018.3 |
| 20260503211354 | 78 | 142 | 1.0 | 2.0 | 0.00 | 0.00 | 0.00 | 40 | 1018.6 |
| 20260503210849 | 78 | 221 | 3.0 | 5.0 | 0.00 | 0.00 | 0.00 | 39 | 1018.5 |
| 20260503210347 | 78 | 320 | 5.0 | 7.0 | 0.00 | 0.00 | 0.00 | 40 | 1018.4 |
| 20260503205841 | 78 | 145 | 2.0 | 2.0 | 0.00 | 0.00 | 0.00 | 42 | 1019.0 |
| 20260503205339 | 79 | 100 | 4.0 | 6.0 | 0.00 | 0.00 | 0.00 | 40 | 1019.2 |
| 20260503204835 | 78 | 177 | 2.0 | 2.0 | 0.00 | 0.00 | 0.00 | 40 | 1019.0 |
| 20260503204332 | 78 | 206 | 1.0 | 2.0 | 0.00 | 0.00 | 0.00 | 41 | 1019.2 |
| 20260503203829 | 78 | 219 | 2.0 | 3.0 | 0.00 | 0.00 | 0.00 | 38 | 1019.2 |
| 20260503203327 | 78 | 39 | 3.0 | 5.0 | 0.00 | 0.00 | 0.00 | 37 | 1019.1 |
| 20260503202824 | 78 | 92 | 3.0 | 3.0 | 0.00 | 0.00 | 0.00 | 42 | 1019.4 |
| 20260503202322 | 77 | 175 | 1.0 | 1.0 | 0.00 | 0.00 | 0.00 | 42 | 1019.8 |
| 20260503201820 | 77 | 94 | 2.0 | 3.0 | 0.00 | 0.00 | 0.00 | 43 | 1019.5 |
| 20260503201316 | 77 | 227 | 1.0 | 2.0 | 0.00 | 0.00 | 0.00 | 43 | 1019.8 |
| 20260503200814 | 78 | 219 | 2.0 | 2.0 | 0.00 | 0.00 | 0.00 | 40 | 1020.1 |
| 20260503200310 | 77 | 178 | 1.0 | 1.0 | 0.00 | 0.00 | 0.00 | 42 | 1019.9 |
| 20260503195807 | 77 | 164 | 0.0 | 1.0 | 0.00 | 0.00 | 0.00 | 42 | 1020.0 |
| 20260503195304 | 77 | 223 | 2.0 | 2.0 | 0.00 | 0.00 | 0.00 | 45 | 1019.9 |
| 20260503194801 | 77 | 170 | 1.0 | 1.0 | 0.00 | 0.00 | 0.00 | 44 | 1020.3 |
| 20260503194256 | 76 | 150 | 3.0 | 3.0 | 0.00 | 0.00 | 0.00 | 43 | 1020.1 |
| 20260503193753 | 77 | 109 | 3.0 | 3.0 | 0.00 | 0.00 | 0.00 | 40 | 1020.2 |
| 20260503193249 | 77 | 221 | 1.0 | 1.0 | 0.00 | 0.00 | 0.00 | 43 | 1020.4 |
| 20260503192745 | 78 | 37 | 3.0 | 5.0 | 0.00 | 0.00 | 0.00 | 41 | 1020.5 |
| 20260503192240 | 78 | 234 | 2.0 | 3.0 | 0.00 | 0.00 | 0.00 | 41 | 1020.6 |
| 20260503191737 | 77 | 109 | 3.0 | 3.0 | 0.00 | 0.00 | 0.00 | 41 | 1020.5 |
| 20260503191234 | 78 | 79 | 3.0 | 3.0 | 0.00 | 0.00 | 0.00 | 40 | 1020.8 |
| 20260503190731 | 77 | 130 | 2.0 | 2.0 | 0.00 | 0.00 | 0.00 | 40 | 1020.8 |
| 20260503190228 | 77 | 167 | 2.0 | 2.0 | 0.00 | 0.00 | 0.00 | 40 | 1020.8 |
| 20260503185725 | 77 | 163 | 2.0 | 2.0 | 0.00 | 0.00 | 0.00 | 39 | 1020.7 |
| 20260503185221 | 76 | 110 | 3.0 | 3.0 | 0.00 | 0.00 | 0.00 | 40 | 1020.8 |
| 20260503184715 | 76 | 249 | 2.0 | 3.0 | 0.00 | 0.00 | 0.00 | 39 | 1020.8 |